Overview Statistics Trail Chart Weather Telemetry Raw packets
 

This is the latest recevied weather packets stored in our database for station/object KB0BS-13. If no packets are shown the sender has not sent any weather packets the latest 10 day(s).

<< 69 70 71 72 73 74 75 >>
Time Temp. Humidity Pressure Rain* Wind** Luminosity Snow
1777206129 1.11° C 99% 1023.6 hPa 0 mm - 129 W/m² -
1777205826 1.11° C 99% 1023.5 hPa 0 mm - 108 W/m² -
1777205523 0.56° C 99% 1023.4 hPa 0 mm - 99 W/m² -
1777205219 0.56° C 99% 1023.4 hPa 0 mm - 91 W/m² -
1777204915 0° C 99% 1023.6 hPa 0 mm - 81 W/m² -
1777204610 -0.56° C 99% 1023.5 hPa 0 mm - 77 W/m² -
1777204305 -0.56° C 99% 1023.5 hPa 0 mm - 70 W/m² -
1777204003 -0.56° C 99% 1023.7 hPa 0 mm - 65 W/m² -
1777203703 -1.11° C 99% 1023.6 hPa 0 mm - 58 W/m² -
1777203398 -1.11° C 99% 1023.4 hPa 0 mm - 49 W/m² -
1777203095 -1.11° C 99% 1023.5 hPa 0 mm - 41 W/m² -
1777202792 -1.67° C 99% 1023.4 hPa 0 mm - 39 W/m² -
1777202490 -1.67° C 99% 1023.6 hPa 0 mm - 34 W/m² -
1777202185 -1.67° C 99% 1023.4 hPa 0 mm - 31 W/m² -
1777201881 -1.67° C 99% 1023.1 hPa 0 mm - 26 W/m² -
1777201579 -1.67° C 99% 1023.1 hPa 0 mm - 20 W/m² -
1777201275 -2.22° C 99% 1023.1 hPa 0 mm - 17 W/m² -
1777200969 -2.22° C 99% 1023.1 hPa 0 mm - 13 W/m² -
1777200667 -1.67° C 99% 1023.1 hPa 0 mm - 10 W/m² -
1777200366 -1.67° C 99% 1023 hPa 0 mm - 8 W/m² -
1777200063 -1.67° C 99% 1023.1 hPa 0 mm - 6 W/m² -
1777199757 -1.67° C 99% 1023.2 hPa 0 mm - 4 W/m² -
1777199454 -1.67° C 99% 1023.1 hPa 0 mm - 2 W/m² -
1777199149 -1.67° C 99% 1023.1 hPa 0 mm - 1 W/m² -
1777198848 -1.67° C 99% 1023.2 hPa 0 mm - 0 W/m² -

* Rain latest hour (hover to see other rain measurements)
** Current wind speed in m/s (hover to see current wind gust speed)